Redding, CA

12:33 PM PST on November 22, 2019 (GMT -0800)
Redding Municipal

Weather History for KRDD - September, 2019

Change the Weather History Date:

Friday, September 6, 2019

  Actual Average Record
Temperature  
Mean Temperature 77 °F -  
Max Temperature 94 °F 93 °F 110 °F (1923)
Min Temperature 59 °F 60 °F 41 °F (1893)
Degree Days  
Heating Degree Days 0    
Cooling Degree Days 12    
Growing Degree Days 26 (Base 50)    
Moisture  
Dew Point 45 °F    
Average Humidity 37    
Maximum Humidity 60    
Minimum Humidity 14    
Precipitation  
Precipitation 0.00 in 0.02 in 2.36 in (1912)
Month to date precipitation T 0.10  
Year to date precipitation 32.27 21.23  
Sea Level Pressure  
Sea Level Pressure 29.99 in    
Wind  
Wind Speed 2 mph (SE)    
Max Wind Speed 12 mph    
Max Gust Speed 16 mph    
Visibility 10 miles    
Events      
T = Trace of Precipitation, MM = Missing Value Source: NWS Daily Summary

Daily Weather History Graph

Daily Weather History Graph

Search for Another Location

Airport or City:

Astronomy

Sep. 06, 2019 Rise Set
Actual Time 6:41 AM PDT 7:33 PM PDT
Civil Twilight 6:13 AM PDT 8:00 PM PDT
Nautical Twilight 5:40 AM PDT 8:33 PM PDT
Astronomical Twilight 5:06 AM PDT 9:07 PM PDT
Moon 2:56 PM PDT (9/6) No Moon Set
Length of Visible Light 13h 47m
Length of Day
12h 52m
First Quarter, 57% of the Moon is Illuminated
Sep 6
First Quarter
Sep 13
Full
Sep 21
Last Quarter
Sep 28
New
Oct 5
First Quarter

Hourly Weather History & Observations

Time (PDT) Temp. Dew Point Humidity Pressure Visibility Wind Dir Wind Speed Gust Speed Precip Events Conditions
12:53 AM 69.1 °F 44.1 °F 40% 29.93 in 10.0 mi Calm Calm - N/A   Clear
1:53 AM 66.9 °F 45.0 °F 45% 29.94 in 10.0 mi NNE 3.5 mph - N/A   Clear
2:53 AM 64.9 °F 46.0 °F 50% 29.95 in 10.0 mi Calm Calm - N/A   Clear
3:53 AM 63.0 °F 46.0 °F 54% 29.96 in 10.0 mi Calm Calm - N/A   Clear
4:53 AM 61.0 °F 46.0 °F 58% 29.97 in 10.0 mi Calm Calm - N/A   Clear
5:53 AM 61.0 °F 46.0 °F 58% 29.99 in 10.0 mi Calm Calm - N/A   Clear
6:53 AM 60.1 °F 46.9 °F 62% 30.01 in 10.0 mi Calm Calm - N/A   Clear
7:53 AM 66.0 °F 48.9 °F 54% 30.03 in 10.0 mi Calm Calm - N/A   Clear
8:53 AM 72.0 °F 48.0 °F 43% 30.04 in 10.0 mi Calm Calm - N/A   Clear
9:53 AM 75.0 °F 50.0 °F 41% 30.04 in 10.0 mi Variable 4.6 mph - N/A   Clear
10:53 AM 80.1 °F 50.0 °F 35% 30.04 in 10.0 mi WSW 5.8 mph - N/A   Clear
11:53 AM 84.9 °F 46.9 °F 27% 30.03 in 10.0 mi Variable 4.6 mph - N/A   Clear
12:53 PM 87.1 °F 45.0 °F 23% 30.02 in 10.0 mi SE 6.9 mph - N/A   Clear
1:53 PM 90.0 °F 43.0 °F 19% 30.01 in 10.0 mi Variable 4.6 mph - N/A   Clear
2:53 PM 91.0 °F 43.0 °F 19% 29.99 in 10.0 mi Variable 4.6 mph - N/A   Clear
3:53 PM 93.0 °F 41.0 °F 16% 29.97 in 10.0 mi South 9.2 mph - N/A   Clear
4:53 PM 93.0 °F 37.9 °F 15% 29.97 in 10.0 mi South 9.2 mph - N/A   Clear
5:53 PM 91.9 °F 39.9 °F 16% 29.96 in 10.0 mi SSE 9.2 mph - N/A   Clear
6:53 PM 89.1 °F 43.0 °F 20% 29.96 in 10.0 mi ESE 5.8 mph - N/A   Clear
7:53 PM 84.0 °F 44.1 °F 25% 29.96 in 10.0 mi Calm Calm - N/A   Clear
8:53 PM 80.1 °F 45.0 °F 29% 29.97 in 10.0 mi Calm Calm - N/A   Clear
9:53 PM 75.0 °F 45.0 °F 34% 29.97 in 10.0 mi Calm Calm - N/A   Clear
10:53 PM 72.0 °F 46.0 °F 40% 29.97 in 10.0 mi NNE 5.8 mph - N/A   Clear
11:53 PM 69.1 °F 44.1 °F 40% 29.97 in 10.0 mi Calm Calm - N/A   Clear